Time,TemperatureF,DewpointF,PressureIn,WindDirection,WindDirectionDegrees,WindSpeedMPH,WindSpeedGustMPH,Humidity,HourlyPrecipIn,Conditions,Clouds,dailyrainin,SoftwareType,DateUTC
2013-05-03 00:03:00,63.9,60.3,29.83,WSW,247,2.7,-999.0,88,-99.99,,,0.00,Acu-Link.com,2013-05-03 04:03:00,
2013-05-03 00:18:00,63.3,60.3,29.83,West,270,0.0,-999.0,90,-99.99,,,0.00,Acu-Link.com,2013-05-03 04:18:00,
2013-05-03 00:33:00,62.2,59.5,29.83,WSW,247,0.0,-999.0,91,-99.99,,,0.00,Acu-Link.com,2013-05-03 04:33:00,
2013-05-03 00:48:00,61.5,59.8,29.84,NNW,337,0.0,-999.0,94,-99.99,,,0.00,Acu-Link.com,2013-05-03 04:48:00,
2013-05-03 01:03:00,60.6,59.2,29.83,NW,315,0.0,-999.0,95,-99.99,,,0.00,Acu-Link.com,2013-05-03 05:03:00,
2013-05-03 01:18:00,60.4,59.3,29.83,NW,315,0.0,-999.0,96,-99.99,,,0.00,Acu-Link.com,2013-05-03 05:18:00,
2013-05-03 01:33:00,60.4,59.5,29.82,NW,315,0.0,-999.0,97,-99.99,,,0.00,Acu-Link.com,2013-05-03 05:33:00,
2013-05-03 01:49:00,62.2,59.5,29.82,South,180,3.7,-999.0,91,-99.99,,,0.00,Acu-Link.com,2013-05-03 05:49:00,
2013-05-03 02:04:00,62.1,59.1,29.82,South,180,0.0,-999.0,90,-99.99,,,0.00,Acu-Link.com,2013-05-03 06:04:00,
2013-05-03 02:19:00,61.9,59.5,29.82,NE,45,0.0,-999.0,92,-99.99,,,0.00,Acu-Link.com,2013-05-03 06:19:00,
2013-05-03 02:34:00,61.7,59.3,29.81,NW,315,0.0,-999.0,92,-99.99,,,0.00,Acu-Link.com,2013-05-03 06:34:00,
2013-05-03 02:49:00,61.9,59.2,29.80,NNW,337,0.0,-999.0,91,-99.99,,,0.00,Acu-Link.com,2013-05-03 06:49:00,
2013-05-03 03:04:00,60.8,59.1,29.80,NE,45,0.0,-999.0,94,-99.99,,,0.00,Acu-Link.com,2013-05-03 07:04:00,
2013-05-03 03:19:00,60.1,59.0,29.79,NNW,337,0.0,-999.0,96,-99.99,,,0.00,Acu-Link.com,2013-05-03 07:19:00,
2013-05-03 03:34:00,60.8,59.4,29.79,SSW,202,1.7,-999.0,95,-99.99,,,0.00,Acu-Link.com,2013-05-03 07:34:00,
2013-05-03 03:49:00,61.5,59.5,29.79,South,180,3.2,-999.0,93,-99.99,,,0.00,Acu-Link.com,2013-05-03 07:49:00,
2013-05-03 04:05:00,61.5,59.5,29.79,WSW,247,4.2,-999.0,93,-99.99,,,0.00,Acu-Link.com,2013-05-03 08:05:00,
2013-05-03 04:20:00,61.9,59.5,29.79,South,180,3.2,-999.0,92,-99.99,,,0.00,Acu-Link.com,2013-05-03 08:20:00,
2013-05-03 04:35:00,61.7,59.3,29.78,SW,225,2.7,-999.0,92,-99.99,,,0.00,Acu-Link.com,2013-05-03 08:35:00,
2013-05-03 04:51:00,61.9,59.5,29.78,SW,225,1.7,-999.0,92,-99.99,,,0.00,Acu-Link.com,2013-05-03 08:51:00,
2013-05-03 05:06:00,61.5,59.5,29.78,North,0,2.7,-999.0,93,-99.99,,,0.00,Acu-Link.com,2013-05-03 09:06:00,
2013-05-03 05:21:00,59.7,58.8,29.78,North,0,0.0,-999.0,97,-99.99,,,0.00,Acu-Link.com,2013-05-03 09:21:00,
2013-05-03 05:36:00,59.0,58.4,29.78,NNE,22,0.0,-999.0,98,-99.99,,,0.00,Acu-Link.com,2013-05-03 09:36:00,
2013-05-03 05:51:00,58.6,58.0,29.79,North,0,0.0,-999.0,98,-99.99,,,0.00,Acu-Link.com,2013-05-03 09:51:00,
2013-05-03 06:06:00,58.3,57.7,29.79,NNE,22,0.0,-999.0,98,-99.99,,,0.00,Acu-Link.com,2013-05-03 10:06:00,
2013-05-03 06:21:00,58.1,57.5,29.79,NNW,337,0.0,-999.0,98,-99.99,,,0.00,Acu-Link.com,2013-05-03 10:21:00,
2013-05-03 06:37:00,57.9,57.3,29.79,NNW,337,0.0,-999.0,98,-99.99,,,0.00,Acu-Link.com,2013-05-03 10:37:00,
2013-05-03 06:52:00,57.9,57.3,29.79,NE,45,0.0,-999.0,98,-99.99,,,0.00,Acu-Link.com,2013-05-03 10:52:00,
2013-05-03 07:07:00,57.9,57.3,29.79,NE,45,0.0,-999.0,98,-99.99,,,0.00,Acu-Link.com,2013-05-03 11:07:00,
2013-05-03 07:22:00,57.9,57.3,29.79,NE,45,0.0,-999.0,98,-99.99,,,0.00,Acu-Link.com,2013-05-03 11:22:00,
2013-05-03 07:37:00,58.3,57.7,29.80,NE,45,0.0,-999.0,98,-99.99,,,0.00,Acu-Link.com,2013-05-03 11:37:00,
2013-05-03 07:52:00,58.8,58.2,29.79,ENE,67,0.0,-999.0,98,-99.99,,,0.00,Acu-Link.com,2013-05-03 11:52:00,
2013-05-03 08:07:00,59.5,58.9,29.80,SW,225,1.1,-999.0,98,-99.99,,,0.00,Acu-Link.com,2013-05-03 12:07:00,
2013-05-03 08:22:00,62.6,60.2,29.79,South,180,3.7,-999.0,92,-99.99,,,0.00,Acu-Link.com,2013-05-03 12:22:00,
2013-05-03 08:37:00,63.1,60.1,29.79,SSW,202,6.8,-999.0,90,-99.99,,,0.00,Acu-Link.com,2013-05-03 12:37:00,
2013-05-03 08:53:00,63.7,60.4,29.79,South,180,5.8,-999.0,89,-99.99,,,0.00,Acu-Link.com,2013-05-03 12:53:00,
2013-05-03 09:08:00,64.8,60.5,29.80,South,180,6.3,-999.0,86,-99.99,,,0.00,Acu-Link.com,2013-05-03 13:08:00,
2013-05-03 09:23:00,64.9,59.6,29.80,South,180,5.3,-999.0,83,-99.99,,,0.00,Acu-Link.com,2013-05-03 13:23:00,
2013-05-03 09:38:00,65.8,60.1,29.79,SSW,202,7.3,-999.0,82,-99.99,,,0.00,Acu-Link.com,2013-05-03 13:38:00,
2013-05-03 09:53:00,66.2,59.5,29.79,South,180,5.8,-999.0,79,-99.99,,,0.00,Acu-Link.com,2013-05-03 13:53:00,
2013-05-03 10:08:00,66.7,60.0,29.79,South,180,6.8,-999.0,79,-99.99,,,0.00,Acu-Link.com,2013-05-03 14:08:00,
2013-05-03 10:23:00,67.3,60.6,29.78,South,180,2.7,-999.0,79,-99.99,,,0.00,Acu-Link.com,2013-05-03 14:23:00,
2013-05-03 10:38:00,68.5,61.0,29.78,South,180,7.8,-999.0,77,-99.99,,,0.00,Acu-Link.com,2013-05-03 14:38:00,
2013-05-03 10:53:00,69.4,61.9,29.79,SSW,202,8.3,-999.0,77,-99.99,,,0.00,Acu-Link.com,2013-05-03 14:53:00,
2013-05-03 11:09:00,68.0,60.9,29.79,SW,225,8.3,-999.0,78,-99.99,,,0.00,Acu-Link.com,2013-05-03 15:09:00,
2013-05-03 11:24:00,70.5,61.8,29.78,ESE,112,3.7,-999.0,74,-99.99,,,0.00,Acu-Link.com,2013-05-03 15:24:00,
2013-05-03 11:39:00,68.4,60.2,29.78,SSW,202,13.0,-999.0,75,-99.99,,,0.00,Acu-Link.com,2013-05-03 15:39:00,
2013-05-03 11:54:00,66.9,59.8,29.77,South,180,4.7,-999.0,78,-99.99,,,0.00,Acu-Link.com,2013-05-03 15:54:00,
2013-05-03 12:09:00,67.5,60.8,29.78,SSW,202,6.8,-999.0,79,-99.99,,,0.00,Acu-Link.com,2013-05-03 16:09:00,
2013-05-03 12:24:00,66.4,59.7,29.78,South,180,8.9,-999.0,79,-99.99,,,0.00,Acu-Link.com,2013-05-03 16:24:00,
2013-05-03 12:39:00,67.1,60.0,29.77,South,180,5.3,-999.0,78,-99.99,,,0.00,Acu-Link.com,2013-05-03 16:39:00,
2013-05-03 12:54:00,68.2,60.7,29.76,SW,225,5.8,-999.0,77,-99.99,,,0.00,Acu-Link.com,2013-05-03 16:54:00,
2013-05-03 13:10:00,67.6,60.1,29.75,SW,225,8.3,-999.0,77,-99.99,,,0.00,Acu-Link.com,2013-05-03 17:10:00,
2013-05-03 13:25:00,68.2,60.7,29.75,South,180,3.2,-999.0,77,-99.99,,,0.00,Acu-Link.com,2013-05-03 17:25:00,
2013-05-03 13:40:00,68.2,60.3,29.74,SE,135,3.7,-999.0,76,-99.99,,,0.00,Acu-Link.com,2013-05-03 17:40:00,
2013-05-03 13:55:00,68.2,60.3,29.74,SSE,157,5.3,-999.0,76,-99.99,,,0.00,Acu-Link.com,2013-05-03 17:55:00,
2013-05-03 14:10:00,67.1,60.4,29.75,SSW,202,11.4,-999.0,79,-99.99,,,0.00,Acu-Link.com,2013-05-03 18:10:00,
2013-05-03 14:25:00,66.7,59.6,29.75,SSE,157,8.3,-999.0,78,-99.99,,,0.00,Acu-Link.com,2013-05-03 18:25:00,
2013-05-03 14:40:00,66.4,59.7,29.75,SSE,157,12.5,-999.0,79,-99.99,,,0.00,Acu-Link.com,2013-05-03 18:40:00,
2013-05-03 14:55:00,64.2,59.9,29.75,SE,135,10.4,-999.0,86,-99.99,,,0.00,Acu-Link.com,2013-05-03 18:55:00,
2013-05-03 15:11:00,64.2,60.2,29.75,East,90,2.7,-999.0,87,-99.99,,,0.00,Acu-Link.com,2013-05-03 19:11:00,
2013-05-03 15:26:00,64.4,60.8,29.74,WSW,247,7.3,-999.0,88,-99.99,,,0.00,Acu-Link.com,2013-05-03 19:26:00,
2013-05-03 15:41:00,66.4,62.1,29.74,ESE,112,4.2,-999.0,86,-99.99,,,0.00,Acu-Link.com,2013-05-03 19:41:00,
2013-05-03 15:56:00,64.0,60.7,29.73,SE,135,6.3,-999.0,89,-99.99,,,0.00,Acu-Link.com,2013-05-03 19:56:00,
2013-05-03 16:11:00,65.3,60.7,29.73,SSW,202,10.4,-999.0,85,-99.99,,,0.00,Acu-Link.com,2013-05-03 20:11:00,
2013-05-03 16:26:00,65.7,60.7,29.72,SSE,157,4.2,-999.0,84,-99.99,,,0.00,Acu-Link.com,2013-05-03 20:26:00,
2013-05-03 16:41:00,65.5,60.5,29.72,SE,135,5.8,-999.0,84,-99.99,,,0.00,Acu-Link.com,2013-05-03 20:41:00,
2013-05-03 16:57:00,66.4,60.7,29.72,SE,135,4.7,-999.0,82,-99.99,,,0.00,Acu-Link.com,2013-05-03 20:57:00,
2013-05-03 17:12:00,66.6,60.9,29.71,SSW,202,7.3,-999.0,82,-99.99,,,0.00,Acu-Link.com,2013-05-03 21:12:00,
2013-05-03 17:27:00,66.7,60.7,29.71,South,180,6.8,-999.0,81,-99.99,,,0.00,Acu-Link.com,2013-05-03 21:27:00,
2013-05-03 17:42:00,66.4,60.4,29.70,SSE,157,8.3,-999.0,81,-99.99,,,0.00,Acu-Link.com,2013-05-03 21:42:00,
2013-05-03 17:57:00,66.2,60.2,29.71,SE,135,9.4,-999.0,81,-99.99,,,0.00,Acu-Link.com,2013-05-03 21:57:00,
2013-05-03 18:12:00,65.8,59.5,29.70,South,180,4.7,-999.0,80,-99.99,,,0.00,Acu-Link.com,2013-05-03 22:12:00,
2013-05-03 18:27:00,65.8,59.5,29.70,East,90,6.3,-999.0,80,-99.99,,,0.00,Acu-Link.com,2013-05-03 22:27:00,
2013-05-03 18:43:00,65.7,59.7,29.70,West,270,4.7,-999.0,81,-99.99,,,0.00,Acu-Link.com,2013-05-03 22:43:00,
2013-05-03 18:58:00,65.1,59.1,29.70,South,180,5.3,-999.0,81,-99.99,,,0.00,Acu-Link.com,2013-05-03 22:58:00,
2013-05-03 19:13:00,64.6,59.0,29.70,South,180,13.0,-999.0,82,-99.99,,,0.00,Acu-Link.com,2013-05-03 23:13:00,
2013-05-03 19:28:00,64.8,59.2,29.70,South,180,8.3,-999.0,82,-99.99,,,0.00,Acu-Link.com,2013-05-03 23:28:00,
2013-05-03 19:43:00,64.6,59.3,29.68,South,180,5.8,-999.0,83,-99.99,,,0.00,Acu-Link.com,2013-05-03 23:43:00,
2013-05-03 19:58:00,64.2,58.9,29.68,SW,225,22.2,-999.0,83,-99.99,,,0.00,Acu-Link.com,2013-05-03 23:58:00,
2013-05-03 20:13:00,64.2,59.3,29.68,SSW,202,5.8,-999.0,84,-99.99,,,0.00,Acu-Link.com,2013-05-04 00:13:00,
2013-05-03 20:28:00,64.0,59.1,29.68,South,180,9.4,-999.0,84,-99.99,,,0.00,Acu-Link.com,2013-05-04 00:28:00,
2013-05-03 20:44:00,64.0,59.4,29.68,ESE,112,2.7,-999.0,85,-99.99,,,0.00,Acu-Link.com,2013-05-04 00:44:00,
2013-05-03 20:59:00,64.0,59.4,29.68,SE,135,3.7,-999.0,85,-99.99,,,0.00,Acu-Link.com,2013-05-04 00:59:00,
2013-05-03 21:14:00,63.9,59.3,29.68,ESE,112,2.7,-999.0,85,-99.99,,,0.00,Acu-Link.com,2013-05-04 01:14:00,
2013-05-03 21:29:00,64.0,59.4,29.68,SSE,157,5.8,-999.0,85,-99.99,,,0.00,Acu-Link.com,2013-05-04 01:29:00,
2013-05-03 21:44:00,63.9,59.3,29.69,SSW,202,3.2,-999.0,85,-99.99,,,0.00,Acu-Link.com,2013-05-04 01:44:00,
2013-05-03 21:59:00,63.7,59.1,29.69,SSW,202,10.4,-999.0,85,-99.99,,,0.00,Acu-Link.com,2013-05-04 01:59:00,
2013-05-03 22:14:00,63.7,59.1,29.69,SSW,202,4.7,-999.0,85,-99.99,,,0.00,Acu-Link.com,2013-05-04 02:14:00,
2013-05-03 22:29:00,63.7,59.1,29.69,SSW,202,5.8,-999.0,85,-99.99,,,0.00,Acu-Link.com,2013-05-04 02:29:00,
2013-05-03 22:44:00,63.7,59.1,29.69,SSE,157,5.3,-999.0,85,-99.99,,,0.00,Acu-Link.com,2013-05-04 02:44:00,
2013-05-03 23:00:00,63.9,59.0,29.68,South,180,7.8,-999.0,84,-99.99,,,0.00,Acu-Link.com,2013-05-04 03:00:00,
2013-05-03 23:15:00,64.0,58.7,29.70,SSE,157,9.9,-999.0,83,-99.99,,,0.00,Acu-Link.com,2013-05-04 03:15:00,
2013-05-03 23:30:00,63.9,58.6,29.70,SSE,157,5.8,-999.0,83,-99.99,,,0.00,Acu-Link.com,2013-05-04 03:30:00,
2013-05-03 23:45:00,63.7,58.1,29.69,South,180,7.3,-999.0,82,-99.99,,,0.00,Acu-Link.com,2013-05-04 03:45:00,